ACA426 CYYZ-CYUL

Flight info

Callsign ACA426
Flight time 0h 55m
Altitude 33000
Route DEDKI5 MIGLO HABBS7
Aircraft A321/M-SDE3FGHIRWY/LB1

Departure

Time 2026-05-04 00:21
Airport Toronto Pearson International Airport (CYYZ)

Arrival

Time 2026-05-04 01:16
Airport Montreal / Pierre Elliott Trudeau International Airport (CYUL)
Time Latitude Longitude Altitude Speed Heading
2026-05-03 22:20 43.68107 -79.61545 570 ft 0 kts 98°
2026-05-04 00:07 43.68107 -79.61546 561 ft 1 kts 98°
2026-05-04 00:07 43.68111 -79.61579 571 ft 4 kts 98°
2026-05-04 00:08 43.68115 -79.61615 570 ft 4 kts 98°
2026-05-04 00:08 43.68119 -79.61652 568 ft 4 kts 98°
2026-05-04 00:08 43.68122 -79.61682 567 ft 4 kts 96°
2026-05-04 00:08 43.68121 -79.61718 561 ft 4 kts 73°
2026-05-04 00:09 43.68110 -79.61751 569 ft 4 kts 53°
2026-05-04 00:09 43.68098 -79.61772 567 ft 0 kts 46°
2026-05-04 00:11 43.68098 -79.61770 567 ft 1 kts 46°
2026-05-04 00:12 43.68102 -79.61766 565 ft 2 kts 46°
2026-05-04 00:12 43.68135 -79.61736 579 ft 10 kts 12°
2026-05-04 00:12 43.68165 -79.61800 568 ft 9 kts 251°
2026-05-04 00:12 43.68128 -79.61864 563 ft 8 kts 226°
2026-05-04 00:13 43.68103 -79.61899 563 ft 7 kts 225°
2026-05-04 00:13 43.68081 -79.61931 567 ft 0 kts 226°
2026-05-04 00:14 43.68055 -79.61965 568 ft 12 kts 217°
2026-05-04 00:14 43.67974 -79.62024 564 ft 13 kts 229°
2026-05-04 00:14 43.67989 -79.62123 564 ft 11 kts 315°
2026-05-04 00:15 43.68053 -79.62205 566 ft 17 kts 316°
2026-05-04 00:15 43.68147 -79.62327 562 ft 19 kts 317°
2026-05-04 00:15 43.68239 -79.62443 567 ft 17 kts 320°
2026-05-04 00:15 43.68327 -79.62549 567 ft 16 kts 316°
2026-05-04 00:16 43.68410 -79.62658 564 ft 20 kts 316°
2026-05-04 00:16 43.68516 -79.62799 562 ft 21 kts 317°
2026-05-04 00:16 43.68620 -79.62934 564 ft 20 kts 316°
2026-05-04 00:16 43.68720 -79.63064 568 ft 19 kts 316°
2026-05-04 00:17 43.68813 -79.63185 569 ft 18 kts 317°
2026-05-04 00:17 43.68901 -79.63299 566 ft 16 kts 316°
2026-05-04 00:17 43.68977 -79.63398 564 ft 14 kts 317°
2026-05-04 00:17 43.69047 -79.63489 567 ft 13 kts 317°
2026-05-04 00:18 43.69117 -79.63518 572 ft 10 kts 23°
2026-05-04 00:18 43.69171 -79.63456 570 ft 14 kts 44°
2026-05-04 00:18 43.69279 -79.63422 563 ft 9 kts
2026-05-04 00:18 43.69335 -79.63420 562 ft 0 kts 358°
2026-05-04 00:19 43.69353 -79.63427 562 ft 5 kts 339°
2026-05-04 00:19 43.69386 -79.63463 564 ft 8 kts 313°
2026-05-04 00:20 43.69380 -79.63558 565 ft 12 kts 227°
2026-05-04 00:20 43.69368 -79.63576 567 ft 5 kts 226°
2026-05-04 00:20 43.69206 -79.63811 567 ft 68 kts 226°
2026-05-04 00:20 43.68747 -79.64477 569 ft 122 kts 226°
2026-05-04 00:21 43.68062 -79.65468 637 ft 156 kts 226°
2026-05-04 00:21 43.67326 -79.66517 1289 ft 152 kts 226°
2026-05-04 00:21 43.66640 -79.67608 1942 ft 147 kts 231°
2026-05-04 00:21 43.65953 -79.68628 2584 ft 142 kts 230°
2026-05-04 00:22 43.65268 -79.69605 3116 ft 144 kts 236°
2026-05-04 00:22 43.64691 -79.70840 3279 ft 164 kts 243°
2026-05-04 00:22 43.64087 -79.72285 3500 ft 181 kts 243°
2026-05-04 00:22 43.63431 -79.73807 3959 ft 187 kts 243°
2026-05-04 00:23 43.62704 -79.75433 4257 ft 211 kts 242°
2026-05-04 00:23 43.61876 -79.77221 4729 ft 227 kts 242°
2026-05-04 00:23 43.60990 -79.79067 5456 ft 233 kts 240°
2026-05-04 00:23 43.60075 -79.80922 6284 ft 235 kts 240°
2026-05-04 00:24 43.59139 -79.82791 7067 ft 238 kts 240°
2026-05-04 00:24 43.58148 -79.84641 7817 ft 245 kts 231°
2026-05-04 00:24 43.56681 -79.85961 8492 ft 265 kts 205°
2026-05-04 00:24 43.54781 -79.86102 9162 ft 291 kts 173°
2026-05-04 00:25 43.52941 -79.84748 9817 ft 314 kts 140°
2026-05-04 00:25 43.51724 -79.82181 10310 ft 333 kts 113°
2026-05-04 00:25 43.51137 -79.78978 10453 ft 357 kts 97°
2026-05-04 00:25 43.50941 -79.75467 10647 ft 376 kts 90°
2026-05-04 00:26 43.50901 -79.71829 11218 ft 383 kts 89°
2026-05-04 00:26 43.50853 -79.68151 11945 ft 385 kts 91°
2026-05-04 00:26 43.50725 -79.64454 12694 ft 388 kts 93°
2026-05-04 00:26 43.50560 -79.60738 13453 ft 390 kts 90°
2026-05-04 00:27 43.50716 -79.57003 14128 ft 391 kts 80°
2026-05-04 00:27 43.51284 -79.53340 14757 ft 393 kts 73°
2026-05-04 00:27 43.51966 -79.49676 15389 ft 396 kts 73°
2026-05-04 00:27 43.52660 -79.46038 16006 ft 400 kts 73°
2026-05-04 00:28 43.53383 -79.42321 16634 ft 403 kts 72°
2026-05-04 00:28 43.54166 -79.38593 17269 ft 407 kts 70°
2026-05-04 00:28 43.55012 -79.34856 17878 ft 410 kts 69°
2026-05-04 00:28 43.55889 -79.31100 18438 ft 413 kts 69°
2026-05-04 00:29 43.56772 -79.27315 18965 ft 417 kts 69°
2026-05-04 00:29 43.57652 -79.23491 19481 ft 420 kts 69°
2026-05-04 00:29 43.58524 -79.19631 19997 ft 423 kts 70°
2026-05-04 00:29 43.59389 -79.15741 20505 ft 426 kts 70°
2026-05-04 00:30 43.60256 -79.11810 21011 ft 430 kts 70°
2026-05-04 00:30 43.61127 -79.07851 21509 ft 433 kts 70°
2026-05-04 00:30 43.62004 -79.03859 22019 ft 436 kts 70°
2026-05-04 00:30 43.62887 -78.99848 22519 ft 438 kts 70°
2026-05-04 00:31 43.63778 -78.95812 22817 ft 440 kts 70°
2026-05-04 00:31 43.64669 -78.91767 22866 ft 440 kts 70°
2026-05-04 00:31 43.65559 -78.87721 22863 ft 440 kts 70°
2026-05-04 00:31 43.66447 -78.83677 22861 ft 440 kts 70°
2026-05-04 00:32 43.67330 -78.79636 22862 ft 440 kts 70°
2026-05-04 00:32 43.68214 -78.75584 22862 ft 440 kts 70°
2026-05-04 00:32 43.69136 -78.71559 22866 ft 438 kts 65°
2026-05-04 00:32 43.70325 -78.67676 23210 ft 440 kts 63°
2026-05-04 00:33 43.71538 -78.63781 23673 ft 442 kts 63°
2026-05-04 00:33 43.73954 -78.55933 24459 ft 446 kts 63°
2026-05-04 00:33 43.75164 -78.51971 24826 ft 448 kts 63°
2026-05-04 00:34 43.76378 -78.47990 25194 ft 451 kts 63°
2026-05-04 00:34 43.77600 -78.43987 25558 ft 453 kts 63°
2026-05-04 00:34 43.78829 -78.39958 25916 ft 455 kts 63°
2026-05-04 00:34 43.80066 -78.35905 26279 ft 458 kts 63°
2026-05-04 00:35 43.81305 -78.31836 26636 ft 460 kts 63°
2026-05-04 00:35 43.82548 -78.27748 27008 ft 462 kts 63°
2026-05-04 00:35 43.83799 -78.23633 27342 ft 465 kts 63°
2026-05-04 00:35 43.85051 -78.19496 27676 ft 467 kts 63°
2026-05-04 00:36 43.86308 -78.15332 27998 ft 469 kts 63°
2026-05-04 00:36 43.87571 -78.11153 28330 ft 471 kts 63°
2026-05-04 00:36 43.88839 -78.06950 28646 ft 473 kts 63°
2026-05-04 00:36 43.90111 -78.02727 28958 ft 476 kts 64°
2026-05-04 00:37 43.91389 -77.98484 29268 ft 478 kts 64°
2026-05-04 00:37 43.92672 -77.94221 29586 ft 480 kts 64°
2026-05-04 00:37 43.93959 -77.89942 29926 ft 481 kts 64°
2026-05-04 00:37 43.95240 -77.85669 30301 ft 480 kts 64°
2026-05-04 00:38 43.96517 -77.81388 30672 ft 479 kts 64°
2026-05-04 00:38 43.97787 -77.77118 31025 ft 479 kts 64°
2026-05-04 00:38 43.99041 -77.72901 31371 ft 479 kts 64°
2026-05-04 00:38 44.00308 -77.68627 31722 ft 478 kts 64°
2026-05-04 00:39 44.01570 -77.64359 32066 ft 478 kts 64°
2026-05-04 00:39 44.02830 -77.60089 32410 ft 478 kts 64°
2026-05-04 00:39 44.04089 -77.55815 32755 ft 477 kts 64°
2026-05-04 00:39 44.05346 -77.51548 33091 ft 477 kts 64°
2026-05-04 00:40 44.06604 -77.47278 33448 ft 477 kts 64°
2026-05-04 00:40 44.07958 -77.43080 33752 ft 474 kts 58°
2026-05-04 00:40 44.09663 -77.39175 34020 ft 471 kts 53°
2026-05-04 00:40 44.11451 -77.35353 34257 ft 472 kts 53°
2026-05-04 00:41 44.13242 -77.31527 34487 ft 472 kts 53°
2026-05-04 00:41 44.15031 -77.27693 34687 ft 473 kts 53°
2026-05-04 00:41 44.16819 -77.23847 34837 ft 474 kts 53°
2026-05-04 00:42 44.20374 -77.16167 34877 ft 470 kts 54°
2026-05-04 00:42 44.23908 -77.08493 34877 ft 470 kts 54°
2026-05-04 00:43 44.27433 -77.00817 34878 ft 470 kts 54°
2026-05-04 00:43 44.30960 -76.93147 34878 ft 470 kts 54°
2026-05-04 00:44 44.34476 -76.85460 34879 ft 470 kts 54°
2026-05-04 00:44 44.37990 -76.77762 34877 ft 470 kts 54°
2026-05-04 00:45 44.41498 -76.70057 34886 ft 470 kts 54°
2026-05-04 00:45 44.45001 -76.62338 34873 ft 470 kts 54°
2026-05-04 00:46 44.48502 -76.54611 34868 ft 470 kts 54°
2026-05-04 00:46 44.52005 -76.46869 34863 ft 470 kts 54°
2026-05-04 00:47 44.55474 -76.39175 34858 ft 470 kts 54°
2026-05-04 00:47 44.58982 -76.31357 34864 ft 470 kts 54°
2026-05-04 00:48 44.62440 -76.23635 34859 ft 470 kts 54°
2026-05-04 00:48 44.65296 -76.15275 34852 ft 474 kts 65°
2026-05-04 00:49 44.67798 -76.06768 34839 ft 474 kts 65°
2026-05-04 00:49 44.70338 -75.98146 34833 ft 474 kts 65°
2026-05-04 00:50 44.72735 -75.89563 34854 ft 475 kts 67°
2026-05-04 00:50 44.75013 -75.80841 34832 ft 475 kts 68°
2026-05-04 00:51 44.77277 -75.72118 34794 ft 474 kts 67°
2026-05-04 00:51 44.78423 -75.67770 34247 ft 474 kts 67°
2026-05-04 00:51 44.79577 -75.63427 33639 ft 473 kts 66°
2026-05-04 00:51 44.80731 -75.59089 32952 ft 473 kts 66°
2026-05-04 00:52 44.81881 -75.54754 32269 ft 473 kts 66°
2026-05-04 00:52 44.83025 -75.50419 31704 ft 470 kts 66°
2026-05-04 00:52 44.84153 -75.46126 31219 ft 465 kts 66°
2026-05-04 00:52 44.85301 -75.41893 30748 ft 460 kts 65°
2026-05-04 00:53 44.86476 -75.37726 30295 ft 455 kts 64°
2026-05-04 00:53 44.87660 -75.33611 29836 ft 450 kts 64°
2026-05-04 00:53 44.88832 -75.29547 29281 ft 446 kts 64°
2026-05-04 00:53 44.89990 -75.25509 28721 ft 442 kts 64°
2026-05-04 00:54 44.91128 -75.21507 28170 ft 438 kts 64°
2026-05-04 00:54 44.92252 -75.17527 27630 ft 435 kts 64°
2026-05-04 00:54 44.93359 -75.13576 27099 ft 431 kts 64°
2026-05-04 00:54 44.94453 -75.09656 26579 ft 428 kts 64°
2026-05-04 00:55 44.95535 -75.05763 26056 ft 424 kts 64°
2026-05-04 00:55 44.96607 -75.01903 25548 ft 421 kts 64°
2026-05-04 00:55 44.97671 -74.98065 25010 ft 419 kts 64°
2026-05-04 00:55 44.98850 -74.94281 24177 ft 421 kts 57°
2026-05-04 00:56 45.00293 -74.90672 23388 ft 424 kts 56°
2026-05-04 00:56 45.01747 -74.87042 22583 ft 425 kts 56°
2026-05-04 00:56 45.03186 -74.83424 22045 ft 420 kts 56°
2026-05-04 00:56 45.04605 -74.79849 21519 ft 414 kts 56°
2026-05-04 00:57 45.06004 -74.76316 21001 ft 409 kts 56°
2026-05-04 00:57 45.07390 -74.72821 20499 ft 405 kts 56°
2026-05-04 00:57 45.08746 -74.69392 20170 ft 396 kts 56°
2026-05-04 00:57 45.10080 -74.66005 19675 ft 392 kts 56°
2026-05-04 00:58 45.11404 -74.62643 19180 ft 390 kts 56°
2026-05-04 00:58 45.12747 -74.59326 18694 ft 386 kts 54°
2026-05-04 00:58 45.14139 -74.56093 18198 ft 384 kts 53°
2026-05-04 00:58 45.15556 -74.52905 17679 ft 381 kts 53°
2026-05-04 00:59 45.16971 -74.49753 17200 ft 377 kts 53°
2026-05-04 00:59 45.18367 -74.46629 16726 ft 374 kts 53°
2026-05-04 00:59 45.19745 -74.43518 16259 ft 371 kts 53°
2026-05-04 00:59 45.20646 -74.41468 15982 ft 369 kts 53°
2026-05-04 01:00 45.21993 -74.38373 15394 ft 369 kts 53°
2026-05-04 01:00 45.23333 -74.35273 14896 ft 368 kts 53°
2026-05-04 01:00 45.24667 -74.32171 14369 ft 368 kts 53°
2026-05-04 01:00 45.25997 -74.29078 13850 ft 367 kts 53°
2026-05-04 01:01 45.27328 -74.25989 13272 ft 367 kts 53°
2026-05-04 01:01 45.28654 -74.22908 12761 ft 364 kts 54°
2026-05-04 01:01 45.29970 -74.19847 12245 ft 362 kts 54°
2026-05-04 01:01 45.31278 -74.16801 11730 ft 360 kts 54°
2026-05-04 01:02 45.32575 -74.13777 11223 ft 358 kts 54°
2026-05-04 01:02 45.33868 -74.10760 10719 ft 356 kts 54°
2026-05-04 01:02 45.35153 -74.07762 10302 ft 352 kts 53°
2026-05-04 01:02 45.36566 -74.05043 10174 ft 333 kts 41°
2026-05-04 01:03 45.38203 -74.02847 10046 ft 317 kts 36°
2026-05-04 01:03 45.39803 -74.00767 9925 ft 306 kts 36°
2026-05-04 01:03 45.41346 -73.98755 9723 ft 298 kts 36°
2026-05-04 01:03 45.42872 -73.96774 9308 ft 296 kts 36°
2026-05-04 01:04 45.44392 -73.94798 8895 ft 295 kts 37°
2026-05-04 01:04 45.45904 -73.92830 8539 ft 292 kts 37°
2026-05-04 01:04 45.47373 -73.90911 8405 ft 281 kts 37°
2026-05-04 01:04 45.48770 -73.89085 8279 ft 271 kts 37°
2026-05-04 01:05 45.50148 -73.87284 8121 ft 260 kts 37°
2026-05-04 01:05 45.51467 -73.85564 7866 ft 255 kts 37°
2026-05-04 01:05 45.52776 -73.83862 7534 ft 254 kts 37°
2026-05-04 01:05 45.54077 -73.82164 7203 ft 253 kts 37°
2026-05-04 01:06 45.55371 -73.80472 6867 ft 252 kts 37°
2026-05-04 01:06 45.56662 -73.78785 6548 ft 251 kts 38°
2026-05-04 01:06 45.57949 -73.77098 6175 ft 252 kts 38°
2026-05-04 01:06 45.59269 -73.75370 5491 ft 262 kts 38°
2026-05-04 01:07 45.60617 -73.73604 4935 ft 259 kts 39°
2026-05-04 01:07 45.61926 -73.71882 4348 ft 251 kts 39°
2026-05-04 01:07 45.63158 -73.70255 4150 ft 233 kts 39°
2026-05-04 01:07 45.64341 -73.68695 4050 ft 231 kts 39°
2026-05-04 01:08 45.65518 -73.67149 3995 ft 229 kts 39°
2026-05-04 01:08 45.66689 -73.65610 3911 ft 227 kts 39°
2026-05-04 01:08 45.67842 -73.64091 3502 ft 224 kts 39°
2026-05-04 01:08 45.68985 -73.62585 3046 ft 222 kts 40°
2026-05-04 01:09 45.70111 -73.61099 2998 ft 225 kts 40°
2026-05-04 01:09 45.71191 -73.59477 2992 ft 228 kts 54°
2026-05-04 01:09 45.71714 -73.57343 3001 ft 231 kts 84°
2026-05-04 01:09 45.71426 -73.55077 3004 ft 231 kts 116°
2026-05-04 01:10 45.70405 -73.53351 3005 ft 227 kts 147°
2026-05-04 01:10 45.68997 -73.52572 3000 ft 211 kts 176°
2026-05-04 01:10 45.67599 -73.52529 3002 ft 195 kts 184°
2026-05-04 01:10 45.66261 -73.52516 3002 ft 190 kts 184°
2026-05-04 01:11 45.64926 -73.52500 3017 ft 189 kts 184°
2026-05-04 01:11 45.63638 -73.52506 3005 ft 187 kts 188°
2026-05-04 01:11 45.62388 -73.52904 3006 ft 183 kts 205°
2026-05-04 01:11 45.61300 -73.53835 3010 ft 179 kts 221°
2026-05-04 01:12 45.60362 -73.54971 3016 ft 179 kts 225°
2026-05-04 01:12 45.59440 -73.56158 3014 ft 179 kts 225°
2026-05-04 01:12 45.58547 -73.57326 2990 ft 163 kts 226°
2026-05-04 01:12 45.57754 -73.58367 2844 ft 149 kts 226°
2026-05-04 01:13 45.57008 -73.59351 2665 ft 143 kts 226°
2026-05-04 01:13 45.56281 -73.60311 2491 ft 142 kts 226°
2026-05-04 01:13 45.55561 -73.61260 2299 ft 140 kts 226°
2026-05-04 01:13 45.54843 -73.62207 2115 ft 141 kts 226°
2026-05-04 01:14 45.54126 -73.63151 1921 ft 140 kts 225°
2026-05-04 01:14 45.53411 -73.64093 1734 ft 140 kts 225°
2026-05-04 01:14 45.52696 -73.65034 1527 ft 140 kts 225°
2026-05-04 01:14 45.51980 -73.65976 1342 ft 140 kts 225°
2026-05-04 01:15 45.51264 -73.66917 1144 ft 140 kts 224°
2026-05-04 01:15 45.50541 -73.67846 954 ft 140 kts 223°
2026-05-04 01:15 45.49824 -73.68773 778 ft 139 kts 224°
2026-05-04 01:15 45.49134 -73.69724 585 ft 137 kts 226°
2026-05-04 01:16 45.48439 -73.70644 429 ft 136 kts 224°
2026-05-04 01:16 45.47737 -73.71537 192 ft 133 kts 224°
2026-05-04 01:16 45.47115 -73.72371 115 ft 104 kts 224°
2026-05-04 01:16 45.46715 -73.72896 114 ft 48 kts 223°
2026-05-04 01:17 45.46630 -73.73145 111 ft 26 kts 257°
2026-05-04 01:17 45.46599 -73.73292 109 ft 0 kts 253°
2026-05-04 01:17 45.46599 -73.73293 109 ft 0 kts 253°
2026-05-04 01:17 45.46597 -73.73300 109 ft 3 kts 253°
2026-05-04 01:18 45.46579 -73.73385 110 ft 8 kts 252°
2026-05-04 01:18 45.46564 -73.73455 110 ft 8 kts 252°
2026-05-04 01:18 45.46524 -73.73547 110 ft 15 kts 230°
2026-05-04 01:18 45.46433 -73.73671 109 ft 20 kts 223°
2026-05-04 01:19 45.46330 -73.73810 107 ft 21 kts 223°
2026-05-04 01:19 45.46220 -73.73952 104 ft 22 kts 223°
2026-05-04 01:19 45.46140 -73.74126 102 ft 22 kts 261°
2026-05-04 01:19 45.46065 -73.74301 102 ft 21 kts 228°
2026-05-04 01:20 45.45987 -73.74474 104 ft 20 kts 246°
2026-05-04 01:20 45.45960 -73.74660 105 ft 18 kts 278°
2026-05-04 01:20 45.45983 -73.74814 104 ft 15 kts 275°
2026-05-04 01:20 45.45981 -73.74916 105 ft 7 kts 267°
2026-05-04 01:21 45.45960 -73.74950 105 ft 4 kts 182°
2026-05-04 01:21 45.45949 -73.74951 105 ft 2 kts 177°
2026-05-04 01:21 45.45937 -73.74952 105 ft 1 kts 180°
2026-05-04 01:21 45.45933 -73.74951 105 ft 0 kts 179°